Location: Chaumontel
(49.1247°N, 2.4324°E)
Time: 06:31:34
(UTC+00:00)

COSMOS 2428 - Pass Details

Date: 08 August 2024
Orbit: 842 x 857 km, 70.9° (Epoch: 08 September)

Event Time Altitude Azimuth Distance (km) Brightness Sun altitude
Exits shadow 00:53:56 11° 122° (ESE) 2,388 4.9 -23.6°
Maximum altitude 00:56:18 14° 97° (E) 2,193 4.9 -23.5°
Drops below altitude 10° 00:59:07 10° 66° (ENE) 2,480 5.6 -23.3°
Sets 01:02:47 0° 43° (NE) 3,426 6.9 -23.2°
